Weather History for Port Angeles, WA

Change the Weather History Date:

Thursday, August 1, 2013

  Actual Average Record
Temperature  
Mean Temperature 58 °F -  
Max Temperature 66 °F 68 °F 92 °F (1965)
Min Temperature 52 °F 52 °F 43 °F (1987)
Degree Days  
Heating Degree Days 7    
Growing Degree Days 8 (Base 50)    
Moisture  
Dew Point 52 °F    
Average Humidity 86    
Maximum Humidity 97    
Minimum Humidity 67    
Precipitation  
Precipitation 0.00 in - - ()
Sea Level Pressure  
Sea Level Pressure 30.05 in    
Wind  
Wind Speed 7 mph (WNW)    
Max Wind Speed 15 mph    
Max Gust Speed 23 mph    
Visibility 7 miles    
Events Fog    
Averages and records for this station are not official NWS values.
T = Trace of Precipitation, MM = Missing Value Source: NWS Daily Summary

Daily Weather History Graph

Daily Weather History Graph

Search for Another Location

Airport:

Trip Planner

Search our weather history database for the weather conditions in past years. The results will help you decide how hot, cold, wet, or windy it might be!

Date:

Astronomy

Aug. 01, 2013 Rise Set
Actual Time 5:50 AM PDT 8:49 PM PDT
Civil Twilight 5:13 AM PDT 9:25 PM PDT
Nautical Twilight 4:26 AM PDT 10:12 PM PDT
Astronomical Twilight 3:28 AM PDT 11:09 PM PDT
Moon 1:28 AM PDT (8/1) 5:06 PM PDT (8/1)
Length of Visible Light 16h 12m
Length of Day
14h 59m
Waning Crescent, 22% of the Moon is Illuminated
Aug 1
Waning Crescent
Aug 6
New
Aug 14
First Quarter
Aug 20
Full
Aug 28
Last Quarter

Hourly Weather History & Observations

Time (PDT) Temp. Dew Point Humidity Pressure Visibility Wind Dir Wind Speed Gust Speed Precip Events Conditions
12:09 AM 53.1 °F 51.1 °F 93% 30.05 in 1.8 mi WNW 5.8 mph - N/A   Overcast
12:26 AM 52.0 °F 51.1 °F 97% 30.05 in 1.0 mi West 6.9 mph - N/A   Mist
12:53 AM 53.1 °F 51.1 °F 93% 30.05 in 1.5 mi West 8.1 mph - N/A   Overcast
1:13 AM 53.1 °F 51.1 °F 93% 30.04 in 0.5 mi WNW 11.5 mph - N/A Fog Fog
1:53 AM 53.1 °F 52.0 °F 96% 30.03 in 0.8 mi WNW 15.0 mph 23.0 mph N/A   Mist
2:53 AM 53.1 °F 52.0 °F 96% 30.05 in 0.8 mi WNW 10.4 mph - N/A   Mist
3:03 AM 53.1 °F 52.0 °F 96% 30.05 in 1.0 mi WNW 10.4 mph - N/A   Mist
3:41 AM 53.1 °F 52.0 °F 96% 30.05 in 1.2 mi WNW 8.1 mph - N/A   Overcast
3:53 AM 53.1 °F 52.0 °F 96% 30.05 in 1.2 mi WNW 6.9 mph - N/A   Overcast
4:24 AM 53.1 °F 52.0 °F 96% 30.05 in 2.0 mi West 4.6 mph - N/A   Overcast
4:53 AM 53.1 °F 52.0 °F 96% 30.05 in 2.5 mi WSW 3.5 mph - N/A   Overcast
5:00 AM 53.1 °F 52.0 °F 96% 30.05 in 5.0 mi WSW 3.5 mph - N/A   Overcast
5:53 AM 53.1 °F 51.1 °F 93% 30.05 in 8.0 mi Calm Calm - N/A   Overcast
6:31 AM 53.1 °F 52.0 °F 96% 30.05 in 1.8 mi Calm Calm - N/A   Overcast
6:45 AM 53.1 °F 52.0 °F 96% 30.05 in 3.0 mi NNW 3.5 mph - N/A   Overcast
6:53 AM 53.1 °F 52.0 °F 96% 30.05 in 3.0 mi WNW 4.6 mph - N/A   Overcast
7:53 AM 54.0 °F 52.0 °F 93% 30.06 in 8.0 mi West 6.9 mph - N/A   Overcast
8:53 AM 55.9 °F 53.1 °F 90% 30.05 in 10.0 mi Calm Calm - N/A   Overcast
9:53 AM 55.9 °F 52.0 °F 87% 30.04 in 10.0 mi WNW 6.9 mph - N/A   Overcast
10:29 AM 55.9 °F 52.0 °F 87% 30.05 in 10.0 mi NW 6.9 mph - N/A   Overcast
10:53 AM 57.0 °F 52.0 °F 83% 30.05 in 10.0 mi NW 5.8 mph - N/A   Overcast
11:53 AM 59.0 °F 52.0 °F 78% 30.06 in 10.0 mi WNW 6.9 mph - N/A   Overcast
12:31 PM 60.1 °F 53.1 °F 78% 30.06 in 10.0 mi NW 6.9 mph - N/A   Overcast
12:53 PM 62.1 °F 53.1 °F 72% 30.05 in 10.0 mi NNW 9.2 mph - N/A   Overcast
1:22 PM 61.0 °F 53.1 °F 75% 30.05 in 10.0 mi NW 6.9 mph - N/A   Scattered Clouds
1:53 PM 61.0 °F 52.0 °F 72% 30.04 in 10.0 mi NNW 9.2 mph 18.4 mph N/A   Clear
2:53 PM 62.1 °F 52.0 °F 70% 30.05 in 10.0 mi NW 8.1 mph - N/A   Clear
3:53 PM 63.0 °F 53.1 °F 70% 30.03 in 10.0 mi NNW 6.9 mph - N/A   Clear
4:53 PM 64.0 °F 53.1 °F 67% 30.03 in 10.0 mi NNW 5.8 mph - N/A   Clear
5:53 PM 63.0 °F 52.0 °F 67% 30.04 in 10.0 mi NW 13.8 mph - N/A   Clear
6:53 PM 59.0 °F 52.0 °F 78% 30.04 in 10.0 mi WNW 13.8 mph 19.6 mph N/A   Partly Cloudy
7:05 PM 57.9 °F 52.0 °F 81% 30.04 in 10.0 mi NW 10.4 mph - N/A   Mostly Cloudy
7:53 PM 57.9 °F 52.0 °F 81% 30.04 in 10.0 mi WNW 9.2 mph - N/A   Overcast
8:53 PM 57.0 °F 52.0 °F 83% 30.04 in 10.0 mi West 11.5 mph - N/A   Overcast
9:53 PM 57.0 °F 53.1 °F 87% 30.06 in 10.0 mi West 8.1 mph - N/A   Overcast
10:53 PM 57.0 °F 53.1 °F 87% 30.05 in 10.0 mi West 10.4 mph - N/A   Overcast
11:53 PM 57.0 °F 53.1 °F 87% 30.05 in 10.0 mi West 10.4 mph - N/A   Overcast